Simultaneous Nadir Overpasses (SNOs) Predictions

Prediction of SNOs between AQUA and NOAA-19 Satellite Orbit:

Table of predicted SNOs for the next 14.0 days since TLE Epoch: 7/26/2018
Index Date (AQUA) Time (AQUA) Lat,Lon (AQUA) SZA (AQUA ) Date (NOAA-19) Time (NOAA-19) Lat,Lon (NOAA-19) SZA (NOAA-19 ) Distance(km) Time Diff (sec)
1 07/27/2018 03:37:24 -80.75, -92.03 116.31 07/27/2018 03:37:06 -80.76, -92.12 116.28 2.59 18
2 07/29/2018 09:11:13 80.77, 4.20 64.26 07/29/2018 09:10:45 80.76, 4.36 64.25 3.26 28
3 07/29/2018 10:00:40 -80.78, 171.79 115.73 07/29/2018 10:01:40 -80.77, 171.96 115.78 3.24 60
4 07/31/2018 14:45:01 -80.76, 100.90 115.24 07/31/2018 14:44:15 -80.75, 100.76 115.20 2.85 46
5 07/31/2018 15:34:28 80.78, -91.66 64.81 07/31/2018 15:35:19 80.76, -91.51 64.77 3.11 51
6 08/02/2018 20:18:49 80.76,-162.56 65.33 08/02/2018 20:17:54 80.75,-162.68 65.36 2.62 55
7 08/02/2018 21:08:16 -80.76, 5.02 114.65 08/02/2018 21:08:48 -80.76, 5.16 114.68 2.50 32
8 08/05/2018 01:52:39 -80.81, -66.57 114.00 08/05/2018 01:51:25 -80.72, -66.80 114.00 10.21 74
9 08/05/2018 02:42:04 80.77, 101.54 65.94 08/05/2018 02:42:27 80.76, 101.73 65.90 3.44 23
10 08/07/2018 08:15:52 -80.76,-161.82 113.48 08/07/2018 08:15:56 -80.76,-161.71 113.50 2.09 4




NCC Satellite Simultaneous Nadir Overpasses (SNOs) Prediction Service
